User: anonymous   Login
Location: Unspecified
(0.0000°N, 0.0000°E)
Time: 21:41:24
(UTC+00:00)
Language:

SRMSAT - Orbit

View from above orbital plane
View from above orbital plane
View from above satellite
View from above satellite

Ground track
Ground track

The orbit data is extracted from the following two-line orbital elements,

1 37841U 11058D   18049.23941315  .00000302  00000-0  20934-4 0  9995
2 37841  19.9726  85.2697 0011621 264.2527 162.2775 14.10598361328062
Epoch (UTC): 18 February 2018 05:44:45
Eccentricity: 0.0011621
inclination: 19.9726°
perigee height: 849 km
apogee height: 866 km
right ascension of ascending node: 85.2697°
argument of perigee: 264.2527°
revolutions per day: 14.10598361
mean anomaly at epoch: 162.2775°
orbit number at epoch: 32806

The dashed part of the orbit path shows where the satellite is in the earth's shadow,  

DLR